www.pogodaiklimat.ru
ПОГОДА в Апатитах
Время
(UTC), дата
12 8.12
18 8.12
00 9.12
06 9.12
12 9.12
18 9.12
00 10.12
06 10.12
12 10.12
18 10.12
00 11.12
06 11.12
12 11.12
18 11.12
00 12.12
06 12.12
12 12.12
18 12.12
00 13.12
06 13.12
12 13.12
18 13.12
00 14.12
06 14.12
12 14.12
18 14.12
00 15.12
06 15.12
Ветер
(напр.,м/с)
Видим. Явления Облачность Т
(С)
Тd
(С)
f
(%)
Тe
(С)
Тes
(С)
Комфортность P
(гПа)
Po
(гПа)
Тmin
(С)
Tmax
(С)
R
(мм)
R24
(мм)
S
(см)
СЗ 1 2000 м слаб. ливневой снег [диам. гололёда 4 мм] 10/10 300 м
[Cb cap]
-4.2 -4.6 97 -7 -7 975.4 959.0
З 3 20 км {ливн. осадки} [диам. гололёда 4 мм] 4/1 600 м
[Sc Ac trans]
-6.7 -8.2 89 -12 -12 977.0 960.4 -3.7 0.6
штиль 0 20 км [диам. изморози 6 мм] 5/3 600 м
[Sc Ac trans]
-16.5 -18.0 88 -17 -17 979.5 962.2
штиль 0 4000 м слаб. ливневой снег [диам. сложн. отлож. 8 мм] 6/4 300 м
[Cb cap Ac As]
-12.6 -13.6 92 -13 -13 979.2 962.2 -18.6 0.4 48
С 2 20 км {ливн. осадки} [диам. сложн. отлож. 8 мм] 9/4 600 м
[Sc Ac trans]
-11.7 -12.7 92 -16 -16 977.5 960.6
ЮВ 1 20 км [диам. сложн. отлож. 8 мм] 10/8 600 м
[Sc Ac As]
-10.6 -11.5 93 -13 -13 977.8 960.9 -9.8 0.0
СЗ 4 4000 м слаб. ливневой снег [диам. сложн. отлож. 6 мм] 10/6 300 м
[Cb cap Ac As]
-3.5 -4.6 92 -10 -10 982.4 965.9
З 4-9
{12}
20 км позёмок {ливн. осадки} [диам. гололёда 0 мм] 9/4 600 м
[Sc Ac As]
-5.5 -8.3 81 -12 -12 991.0 974.2 -10.5 0.0 46
З 4 20 км позёмок 9/8 600 м
[Sc Ci fib]
-11.0 -12.6 88 -18 -18 996.6 979.4
З 5 1000 м ливневой снег {метель} 10/10 200 м
[Cb cap]
-7.4 -8.4 93 -15 -15 1001.1 984.0 -6.0 12
З 5 20 км позёмок {ливн. осадки} 1/1 600 м
[Sc]
-12.7 -14.7 85 -21 -21 1006.8 989.3
В 1 20 км {метель} [диам. изморози 3 мм] ясно -20.8 -22.6 85 -24 -24 1010.6 992.5 -21.7 0.4 50
В 4 20 км [диам. изморози 2 мм] 10/1 600 м
[Sc Ac As]
-11.0 -12.7 87 -18 -18 1008.2 990.8
ЮВ 6-8
{11}
4000 м слаб. снег {метель} 10/10 200 м
[Frnb Ns]
-6.2 -7.4 91 -14 -14 1000.2 983.2 -6.1 1
В 3 10 км слаб. ливневой снег 10/10 300 м
[Cb cap]
-3.8 -4.5 95 -9 -9 997.3 980.5
ЮВ 1 20 км {ливн. осадки} 10/10 300 м
[St]
-1.9 -2.3 97 -4 -4 1000.4 983.7 -6.0 3 52
Ю 3 20 км {ливн. осадки} 10/8 600 м
[Sc Ac As]
-0.4 -1.1 95 -5 -5 1001.4 984.8
ЮВ 2 20 км {снег} 10/10 200 м
[St]
-0.3 -0.9 96 -4 -4 1001.0 984.4 -0.1 0.2
В 3 20 км в посл. час снег 10/10 200 м
[St]
-0.4 -0.7 98 -5 -5 999.9 983.3
Ю 2 4000 м слаб. дождь со снегом [диам. гололёда 1 мм] 10/10 200 м
[Frnb Ns]
-1.2 -2.0 94 -5 -5 999.6 983.0 -1.2 2 52
ЮВ 2 20 км {снег, дождь} 10/10 300 м
[St]
-2.1 -2.9 94 -6 -6 1000.9 984.2
В 3 4000 м слаб. ливневой снег 10/10 300 м
[Cb cap]
-1.8 -2.4 96 -7 -7 1002.3 985.6 -1.2 0.9
В 2 4000 м слаб. ливневой снег 10/10 300 м
[Cb cap]
-1.5 -2.1 96 -6 -6 1004.5 987.8
В 2 10 км {ливн. осадки} 10/10 300 м
[St]
-1.7 -2.1 97 -6 -6 1006.2 989.4 -2.0 0.4 53
В 4 10 км 10/10 200 м
[St]
-1.0 -1.4 97 -7 -7 1007.9 991.1
В 3 4000 м слаб. ливневой снег {морось} [диам. гололёда 0 мм] 10/10 200 м
[Cb cap]
-0.6 -0.6 100 -6 -6 1007.9 991.2 -0.6 0.3
В 4 4000 м слаб. ливневой снег [диам. гололёда 0 мм] 10/10 200 м
[Cb cap]
-0.6 -0.9 98 -6 -6 1007.9 991.2
В 3 4000 м слаб. снег 10/10 100 м
[St]
-1.1 -1.2 99 -6 -6 1007.4 990.6 -1.2 0.3 52
Местоположение метеостанции Апатиты (Мурманская область, Россия): широта 67.55 долгота 33.35 высота над уровнем моря 134 м.
В архиве по умолчанию представлена погода в Апатитах за последнюю неделю. Архивные данные за месяц целиком и за предыдущие месяцы, начиная с января 2011 года, Вы можете получить, выбрав интересующий диапазон дат из раскрывающегося списка и нажав кнопку "Найти!".
*Определитесь, кто Вы:
Внимание! Время в таблицах - всемирное. Для получения местного времени необходимо прибавить поправку, которая равна 3 ч.
Смотрите также архив погоды в соседних городах и на ближайших метеорологических станциях:
Партнеры нашего сайта:      
Пояснения к столбцам:
  • Ветер - указаны скорость ветра в м/с - средняя за 10 мин, порывы в срок и между сроками (в фигурных скобках) и направление, откуда дует ветер: С - северный,
  • СВ - северо-восточный, В - восточный, ЮВ - юго-восточный, Ю - южный, ЮЗ - юго-западный, З - западный, СЗ - северо-западный.
  • Видимость - горизонтальная дальность видимости в метрах или километрах. При видимости от 1 до 10 км при отсутствии осадков обычно наблюдается дымка, при ухудшении видимости до 1 км и менее - туман. В сухую погоду видимость может ухудшаться дымом, пылью или мглою.
  • Явления - указаны атмосферные явления, наблюдавшиеся в срок или в последний час перед сроком; фигурными скобками обозначены явления, наблюдавшиеся между сроками (за 1-3 часа до срока); квадратными скобками обозначены град или гололедные отложения с указанием их диаметра в мм.
  • Облачность - указаны через наклонную черту общая и нижняя облачность в баллах и высота нижней границы облаков в метрах; квадратными скобками обозначены формы облаков: Ci - перистые, Cs - перисто-слоистые, Cc - перисто-кучевые, Ac - высококучевые, As - высокослоистые, Sc - слоисто-кучевые, Ns - слоисто-дождевые, Cu - кучевые, Cb - кучево-дождевые. Подробнее классификацию облаков см. в Атласе облаков (PDF).
  • T - Температура воздуха - температура, измеренная на высоте 2 м над землей.
  • Td - Температура точки росы - температура, при понижении до которой содержащийся в воздухе водяной пар достигнет насыщения.
  • f - Относительная влажность воздуха - влажноcть воздуха, измеренная на высоте 2 м над землей.
  • Te - Эффективная температура - температура, которую ощущает одетый по сезону человек в тени. Характеристика душности погоды. При расчете учитывается влияние влажности воздуха и скорости ветра на теплоощущения человека.
  • Tes - Эффективная температура на солнце - температура, которую ощущает человек, с поправкой на солнечный нагрев. Характеристика знойности погоды. Зависит от высоты солнца над горизонтом, облачности и скорости ветра. Ночью, в пасмурную погоду, а также при ветре 12 м/с и более поправка равна нулю.
  • P - Атмосферное давление - приведенное к уровню моря атмосферное давление.
  • Po - Атмосферное давление - измеренное на уровне метеостанции атмосферное давление.
  • Tmin - Минимальная температура - минимум температуры воздуха на высоте 2 м над землей.
  • Tmax - Максимальная температура - максимум температуры воздуха на высоте 2 м над землей.
  • R - Количество осадков - Количество выпавших осадков за период времени, мм. При наведении курсора мыши на число - период времени, за который выпало указанное количество осадков.
  • R24 - Количество осадков - Количество выпавших осадков за 24 часа, мм.
  • S - Снежный покров - Высота снежного покрова, см. При наведении курсора мыши на число - состояние снежного покрова и степень покрытия местности в баллах.